Find Starlink 37571

NORAD ID: 69043 Int'l Des: 2026-101 Owner: SPXS Country: US Constellation: starlink operational
LEOCIRCULARRETROGRADE

当前视图

正在加载3D地球...

关于 Starlink 37571

正在加载描述...

即将过境

Passes for default location (London). Set your location on the main map for personalized predictions.

高度历史

Loading altitude history...

两行轨道根数

1 69043U 26101U 26159.50002315 .00087071 00000-0 26736-2 0 9990
2 69043 97.2855 14.4687 0001794 76.9809 187.3526 15.33383084 6073
Epoch: Jun 8, 2026 • Age: 12 hours

当前状态

高度 477.8 km
速度 7.63 km/s
星下点 81.38°N, 2.24°W
发射日期 May 6, 2026
运行时间 33 days
类型 internet

技术详情

分类 Payload
质量 575.00 kg
干质量 530.00 kg
总质量 575.00 kg
长度 0.30 m
直径 4.10 m
跨度 29.00 m
形状 Box + pan
制造商 SPXS
平台类型 Starlink V2MO
阶段状态 In Orbit
所有者/国家 SPXS/US

Most Searched